Tracking 29933 objects as of 2-Dec-2024
HD Live streaming from Space Station
objects crossing your sky now

STARLINK-11165

Track STARLINK-11165 now!
10-day predictions
STARLINK-11165 is classified as:


NORAD ID: 60063
Int'l Code: 2024-113E
Perigee: 365.5 km
Apogee: 368.2 km
Inclination: 53.2 °
Period: 91.7 minutes
Semi major axis: 6737 km
RCS: Unknown
Launch date: June 19, 2024
Source: United States (US)
Launch site: AIR FORCE WESTERN TEST RANGE (AFWTR)
Your satellite tracking list
Your tracking list is empty




NASA's NSSDC Master Catalog

Two Line Element Set (TLE):
1 60063U 24113E   24337.20292097  .00005840  00000-0  53012-4 0  9998
2 60063  53.1547 311.0140 0002002  74.4185 285.7054 15.69719778 27128
Source of the keplerian elements: AFSPC